1st Responders/1st Detectors/Storm Spotters Weather Summary for Clark County, KY

Forecast Maps


Reg. NEXRAD Animation


National Fire Danger: Day 1 & 2 Map

Current NWS Watch/Warnings

SPC Convective Day 1 Outlook


Day 2 Outlook

(Click images to enlarge|Page will refresh every 5 minutes)
UK Ag. Weather Center Desktop Severe Weather Service[HERE]
Clark County, KY Hazardous Weather Outlook Webcast
(9 AM to 9 PM Mon-Fri)
[Fast]
[Dial-up]


UKAWC 1st Detectors/1st Responders Precision Weather Forecast For CLARK County, Kentucky
(based on the NWS County Digital Forecast)

ISSUED AT 23:00 UTC ON MONDAY OCT 25 2021
DAY MONDAY TUESDAY
EDT 3HR 8P 9P 10P 11P MIDN 1A 2A 3A 4A 5A 6A 7A 8A 9A 10A 11A NOON 1P 2P 3P 4P 5P 6P 7P
MAX/MIN 67° -- -- -- -- -- -- -- -- -- -- -- 47° -- -- -- -- -- -- -- -- -- -- 56°
TEMP 52° 52° 52° 50° 50° 50° 49° 49° 49° 47° 47° 47° 47° 47° 47° 49° 50° 52° 52° 52° 54° 54° 52° 49°
SKY COVER 83% 88% 91% 92% 90% 90% 91% 90% 94% 94% 95% 93% 96% 79% 86% 85% 70% 73% 57% 28% 20% 15% 8% 9%
Clouds
DEW PT 47° 49° 49° 49° 49° 47° 47° 47° 45° 45° 43° 43° 43° 43° 43° 43° 41° 41° 40° 40° 38° 38° 38° 38°
RH 83% 89% 89% 92% 92% 89% 89% 92% 89% 89% 89% 89% 86% 85% 82% 79% 71% 68% 63% 60% 56% 56% 61% 67%
POP 12HR 100% -- -- -- -- -- -- -- -- -- -- -- 20% -- -- -- -- -- -- -- -- -- -- --
RAIN/SNOW (liq.equ) 0.03in -- -- -- -- -- 0.00in -- -- -- -- -- 0.00in -- -- -- -- -- 0.00in -- -- -- -- --
SNOWFALL 0in -- -- -- -- -- 0in -- -- -- -- -- 0in -- -- -- -- -- 0in -- -- -- -- --
WIND SPEED(MPH) 14 14 14 14 14 14 13 13 14 14 13 13 10 10 13 10 10 10 10 10 10 9 8 7
WIND Gust(MPH) 23 23 23 23 23 23 22 22 23 23 23 22 21 21 18 16 17 16 15 15 15 15 14 13
WIND DIR W W W W W NW NW NW NW NW NW NW NW N N N N N N NW NW NW NW NW
DEW -- -- -- -- -- -- -- -- -- -- -- -- -- -- -- -- -- -- -- -- -- -- -- --
HeatIndex 52 52 52 50 50 50 49 49 49 47 47 47 47 47 47 49 50 52 52 52 54 54 52 49
Rain Showers -- -- -- -- -- -- -- -- -- -- -- -- -- -- -- -- -- -- -- -- -- -- -- --
Drizzle Areas of Areas of -- Areas of Areas of Areas of -- -- -- -- -- -- -- -- -- -- -- -- -- -- -- -- -- --
Frost -- -- -- -- -- -- -- -- -- -- -- -- -- -- -- -- -- -- -- -- -- -- -- --
WIND CHILL -- -- -- -- -- -- -- -- -- -- -- -- -- -- -- -- -- -- -- -- -- -- -- --
SPRAY COND
DRY COND
LIVESTOCK COLDSTRESS
LIVESTOCK HEATSTRESS 52.64 52.41 52.41 50.39 50.39 50.53 49.59 49.43 49.59 47.71 47.71 47.71 47.91 47.97 48.17 50.13 51.40 53.20 53.38 53.50 55.16 55.16 53.46 50.78



DAY WEDNESDAY THURSDAY FRIDAY SATURDAY SUNDAY SUN MON
EDT 6HR 8P 9P 10P 11P MIDN 1A 2A 3A 4A 5A 6A 7A 8A 11A 2P 5P 8P 11P 2A 5A 8A 11A 2P 5P 8P 2A 8A 2P 8P 2A 8A 2P 8P 2A 8A 2P 8P 2A 8A 2P 8P
MAX/MIN -- -- -- -- -- -- -- -- -- -- -- -- 34° -- -- 59° -- -- -- -- 45° -- -- 58° -- -- 49° 56° -- -- 47° 54° -- -- 43° 59° -- -- 40° 58° --
TEMP 45° 45° 43° 41° 40° 40° 40° 38° 38° 38° 36° 36° 34° 47° 54° 56° 49° 47° 47° 47° 49° 54° 56° 56° 54° 52° 49° 54° 50° 49° 47° 52° 50° 47° 45° 56° 50° 45° 40° 54° 49°
SKY COVER 19% 16% 13% 11% 14% 17% 21% 25% 29% 33% 36% 39% 40% 36% 35% 27% 29% 49% 70% 91% 89% 84% 92% 89% 86% 86% 93% 85% 76% 88% 93% 78% 64% 54% 45% 36% 19% 16% 34% 39% 38%
Clouds
DEW PT 38° 38° 38° 38° 36° 36° 36° 36° 36° 34° 34° 34° 34° 38° 41° 43° 43° 43° 45° 45° 43° 49° 52° 52° 52° 52° 49° 49° 49° 49° 47° 47° 47° 45° 43° 45° 45° 43° 40° 43° 41°
RH 73% 76% 82% 85% 85% 85% 89% 89% 92% 89% 92% 91% 96% 71% 61% 59% 79% 85% 92% 89% 82% 80% 85% 86% 96% 99% 100% 86% 96% 100% 99% 85% 86% 93% 92% 66% 79% 92% 96% 66% 77%
POP 12HR 5% -- -- -- -- -- -- -- -- -- -- -- 0% -- -- -- 0% -- -- -- 17% -- -- -- 91% -- 85% -- 78% -- 65% -- 39% -- 10% -- 3% -- 3% -- 6%
RAIN/SNOW (liq.equ) 0.00in -- -- -- -- -- 0.00in -- -- -- -- -- 0.00in -- 0.00in -- 0.00in -- 0.00in -- 0.00in -- 0.27in -- 0.43in -- -- -- -- -- -- -- -- -- -- -- -- -- -- -- --
SNOWFALL 0in -- -- -- -- -- 0in -- -- -- -- -- 0in -- 0in -- 0in -- 0in -- 0in -- 0in -- 0in -- -- -- -- -- -- -- -- -- -- -- -- -- -- -- --
WIND SPEED(MPH) 7 6 6 5 5 5 5 2 2 2 2 2 1 5 6 6 5 6 6 5 6 6 7 7 6 5 6 9 7 7 7 10 7 6 5 8 6 5 2 7 5
WIND DIR NW N N N N N N N NE NE NE NE NE E E E E E E E E SE SE SE E SE SW W W W NW NW NW W W W W W W W NW
HeatIndex 45 41 39 39 38 38 36 36 35 35 34 34 34 47 54 56 49 47 47 47 49 54 56 56 54 52 49 54 50 49 47 52 50 47 42 56 50 42 38 54 49
Rain Showers -- -- -- -- -- -- -- -- -- -- -- -- -- -- -- -- -- -- Slight Chance Slight Chance Likely Likely Definite Definite Definite Likely Likely Definite Likely Chance Chance Chance -- -- -- -- -- -- -- -- --
Drizzle -- -- -- -- -- -- -- -- -- -- -- -- -- -- -- -- -- -- -- -- -- -- -- -- -- -- -- -- -- -- -- -- -- -- -- -- -- -- -- -- --
Frost -- -- -- -- -- -- -- -- -- -- Patchy Patchy -- -- -- -- -- -- -- -- -- -- -- -- -- -- -- -- -- -- -- -- -- -- -- -- -- -- -- -- --
WIND CHILL 41° 42° 39° 38° 37° 37° 37° -- -- -- -- -- -- -- -- -- -- -- -- -- -- -- -- -- -- -- -- -- -- -- -- -- -- -- 43° -- -- 43° -- -- --
SPRAY COND
DRY COND
LIVESTOCK COLDSTRESS
LIVESTOCK HEATSTRESS 47.05 46.82 44.56 42.47 41.55 41.55 41.14 39.26 38.92 39.26 37.00 37.13 34.55 48.88 55.03 56.63 50.13 47.97 47.52 47.71 49.97 54.53 56.23 56.22 54.11 52.04 49.00 54.37 50.19 49.00 47.06 52.56 50.68 47.45 45.61 56.52 51.02 45.61 40.41 54.90 50.24

Click on individual weather variable above in left-hand column (ie., TEMP, RH, QPF 12HR) to view state forecast maps






NWS 48 Hr. Forecast Maps,

Regional Hourly Observations For CLARK County, Kentucky
Issued at 700 PM EDT MON OCT 25 2021
NORTHEAST KENTUCKY
  
CITY           SKY/WX    TMP DP  RH WIND       PRES   REMARKS
LEXINGTON      CLOUDY    51  47  86 W12G20    29.82R                  
COVINGTON      CLOUDY    52  48  86 W12       29.77R                  
FRANKFORT      CLOUDY    53  49  86 W8        29.82R                  


Current NOWCAST not available:
Nowcasts are not issued routinely during fair weather. Only when
precipitation or other significant weather is occuring in this county will these
forecasts be issued. Currently, there is no short term forecast in effect.


Fire Weather Forecast For CLARK County, KY
Provided by the National Weather Service:

Issued at: Mon Oct 25 19:05:01 EDT 2021


                      Tonight      Tue          Tue Night    Wed          

CLOUD COVER           Mcldy        Pcldy        Mclear       Pcldy        
PRECIP TYPE           Drizzle      None         None         None         
CHANCE PRECIP (%)     0            0            0            0            
TEMP (24H TREND)      45 (-12)     58 (-9)      34           60           
RH % (24H TREND)      96 (+3)      61 (-12)     100          54           
20FTWND-VAL/AM(MPH)                NW  8                     Lgt/Var      
20FTWND-RDG/PM(MPH)   W 10 G20     NW  7        Lgt/Var      Lgt/Var      
PRECIP AMOUNT         0.00         0.00         0.00         0.00         
MIXING HGT(FT-AGL/MSL)             3537                      1469         
TRANSPORT WND (MPH)                N 18                      E  9         
VENT RATE (KT-FT)                  66092                     0            
DISPERSION                         Good                      Poor         
DSI                   MOD UNSTBL   SLGT UNSTBL  SLGT UNSTBL  N/A          
LAL                   1            1            1            1            
HAINES INDEX          2            2            2            3            
ADI EARLY             28 FAIR      50 GEN GOOD  6 VERY POOR  0 VERY POOR  
ADI LATE              23 FAIR      66 GOOD      0 VERY POOR  0 VERY POOR  
MAX LVORI EARLY       5            4            7            10           
MAX LVORI LATE        5            3            9            4            

REMARKS...ADI IS ATMOSPHERIC DISPERSION INDEX BY LAVDAS.        
LVORI IS LOW VISIBILITY OCCURRENCE RISK INDEX.

.THURSDAY...Mostly cloudy with rain showers. Lows in the mid 40s.
Highs in the upper 50s. East winds around 5 mph. 
.FRIDAY...Rain showers. Lows in the upper 40s. Highs in the mid
50s. West winds up to 10 mph. 
.SATURDAY...Mostly cloudy with rain showers likely. Lows in the
upper 40s. Highs in the mid 50s. Northwest winds 5 to 10 mph. 
.SUNDAY...Partly cloudy. Lows in the lower 40s. Highs around 60.
West winds up to 10 mph. 
.MONDAY...Partly cloudy. Lows in the lower 40s. Highs in the
upper 50s. West winds up to 5 mph. 

SPC's Fire Weather Web Tool (Excellent!), SPC's Fire Weather Outlooks, NWS Fire Weather WEB, Fire Danger Class Map,
Keetch-Byram Drought Index, ROMAN Web, Haines Index ,
WFAS's 10-hr Dead Fuel Moist., WFAS's 100-hr Dead Fuel Moist., Probablity of Ignition, Visual blackness Map, Palmer Drought Index, HPC's Rainfall Forecast Maps


Hazardous Weather Outlook For CLARK County, Kentucky
325 PM EDT Mon Oct 25 2021 /225 PM CDT Mon Oct 25 2021/

 DAY ONE  Tonight.

No hazardous weather is expected at this time. 

 DAYS TWO THROUGH SEVEN  Tuesday through Sunday.

Patchy frost is possible late Tuesday night into Wednesday morning
across portions of southern Indiana and the Bluegrass region of
Kentucky. 

 SPOTTER INFORMATION STATEMENT  

Spotter activation is not anticipated at this time. 

Latest CLARK County, Kentucky Watches, Warnings and Advisories.
Additional Drought Info.: UKAWC Drought Page, Kentucky Drought Watch


7-Day Forecast For CLARK County, KY

THIS AFTERNOON
Mostly cloudy. Slight chance of showers late in the morning, then chance of showers and slight chance of thunderstorms in the afternoon. Highs in the upper 60s. Southwest winds 15 to 20 mph. Chance of precipitation 50 percent.

TONIGHT
Cloudy. Chance of drizzle. Lows in the upper 40s. West winds 10 to 15 mph.

TUESDAY
Partly cloudy. Highs in the upper 50s. Northwest winds 5 to 15 mph.

TUESDAY NIGHT
Mostly clear. Widespread dense fog. Lows in the upper 30s. North winds up to 5 mph.

WEDNESDAY
Partly cloudy. Widespread dense fog. Highs in the lower 60s. East winds up to 5 mph.

WEDNESDAY NIGHT
Mostly cloudy with a 30 percent chance of showers. Lows in the upper 40s.

THURSDAY
Showers. Highs around 60. Chance of showers near 100 percent.

THURSDAY NIGHT
Showers. Lows in the upper 40s. Chance of showers near 100 percent.

FRIDAY
Showers. Highs in the upper 50s. Chance of showers 80 percent.

FRIDAY NIGHT
Showers likely. Lows in the mid 40s. Chance of showers 60 percent.

SATURDAY
Mostly cloudy with a 50 percent chance of showers. Highs in the mid 50s.

SATURDAY NIGHT
Partly cloudy with a 30 percent chance of showers. Lows in the mid 40s.

SUNDAY
Partly cloudy. Highs in the lower 60s.

Ag Weather Center, Department of Biosystems & Agricultural Engineering, University of Kentucky